Location: Siratepeler Tepesi
(39.1042°N, 32.0781°E)
Time: 11:07:40
(UTC+00:00)

Cosmos 1441 Rocket - Pass Details

Date: 11 April 2026
Orbit: 411 x 433 km, 81.1° (Epoch: 14 May)

Event Time Altitude Azimuth Distance (km) Brightness Sun altitude
Rises 17:00:33 0° 359° (N) 2,427 6.9 -7.5°
Reaches altitude 10° 17:02:43 10° 7° (N) 1,552 5.8 -7.9°
Maximum altitude 17:05:54 38° 77° (ENE) 681 3.4 -8.5°
Drops below altitude 10° 17:09:03 10° 148° (SSE) 1,532 5.1 -9.1°
Enters shadow 17:09:50 - 152° (SSE) 1,846 5.6 -9.2°
